SCP
0 0 0 0 0 0 0 0 0 0 0 0 0 0 0 0 0 0 0 0 0 0 0 0 0 0 0 0 0 0 0 0 0 0 0 0 0 0 0 0 0 0 0
0 0 0 0 0 0 0 0 0 0 0 0 0 0 0 0 0 0 0 0 0 0 0 0 0 0 0 0 0 0 0 0 0 0 0 0 0 0 0 0 0 0 0
0 0 0 0 0 0 0 0 0 0 0 0 0 0 0 0 0 0 0 0 0 0 0 0 0 0 0 0 0 0 0 0 0 0 0 0 0 0 0 0 0 0 0
0 0 0 0 0 0 0 0 0 0 0 0 0 0 0 0 0 0 0 0 0 0 0 0 0 0 0 0 0 0 0 0 0 0 0 0 0 0 0 0 0 0 0
0 0 0 0 0 0 0 0 0 0 0 0 0 0 0 0 0 0 0 0 0 0 0 0 0 0 0 0 0 0 0 0 0 0 0 0 0 0 0 0 0 0 0
0 0 0 0 0 0 0 0 0 0 0 0 0 0 0 0 0 0 0 0 0 0 0 0 0 0 0 0 0 0 0 0 0 0 0 0 0 0 0 0 0 0 0
0 0 0 0 0 0 0 0 0 0 0 0 0 0 0 0 0 0 0 0 0 0 0 0 0 0 0 0 0 0 0 0 0 0 0 0 0 0 0 0 0 0 0
0 0 0 0 0 0 0 0 0 0 0 0 0 0 0 0 0 0 0 0 0 0 0 0 0 0 0 0 0 0 0 0 0 0 0 0 0 0 0 0 0 0 0
0 0 0 0 0 0 0 0 0 0 0 0 0 0 0 0 0 0 0 0 0 0 0 0 0 0 0 0 0 0 0 0 0 0 0 0 0 0 0 0 0 0 0
0 0 0 0 0 0 0 0 0 0 0 0 0 0 0 0 0 0 0 0 0 0 0 0 0 0 0 0 0 0 0 0 0 0 0 0 0 0 0 0 0 0 0
0 0 0 0 0 0 0 0 0 0 0 0 0 0 0 0 0 0 0 0 0 0 0 0 0 0 0 0 0 0 0 0 0 0 0 0 0 0 0 0 0 0 0
0 0 0 0 0 0 0 0 0 0 0 0 0 0 0 0 0 0 0 0 0 0 0 0 0 0 0 0 0 0 0 0 0 0 0 0 0 0 0 0 0 0 0
0 0 0 0 0 0 0 0 0 0 0 0 0 0 0 0 0 0 0 0 0 0 0 0 0 0 0 0 0 0 0 0 0 0 0 0 0 0 0 0 0 0 0
0 0 0 0 0 0 0 0 0 0 0 0 0 0 0 0 0 0 0 0 0 0 0 0 0 0 0 0 0 0 0 0 0 0 0 0 0 0 0 0 0 0 0
0 0 0 0 0 0 0 0 0 0 0 0 0 0 0 0 0 0 0 0 0 0 0 0 0 0 0 0 0 0 0 0 0 0 0 0 0 0 0 0 0 0 0
0 0 0 0 0 0 0 0 0 0 0 0 0 0 0 0 0 0 0 0 0 0 0 0 0 0 0 0 0 0 0 0 0 0 0 0 0 0 0 0 0 0 0
0 0 0 0 0 0 0 0 0 0 0 0 0 0 0 0 0 0 0 0 0 0 0 0 0 0 0 0 0 0 0 0 0 0 0 0 0 0 0 0 0 0 0
0 0 0 0 0 0 0 0 0 0 0 0 0 0 0 0 0 0 0 0 0 0 0 0 0 0 0 0 0 0 0 0 0 0 0 0 0 0 0 0 0 0 0
0 0 0 0 0 0 0 0 0 0 0 0 0 0 0 0 0 0 0 0 0 0 0 0 0 0 0 0 0 0 0 0 0 0 0 0 0 0 0 0 0 0 0
0 0 0 0 0 0 0 0 0 0 0 0 0 0 0 0 0 0 0 0 0 0 0 0 0 0 0 0 0 0 0 0 0 0 0 0 0 0 0 0 0 0 0
0 0 0 0 0 0 0 0 0 0 0 0 0 0 0 0 0 0 0 0 0 0 0 0 0 0 0 0 0 0 0 0 0 0 0 0 0 0 0 0 0 0 0
0 0 0 0 0 0 0 0 0 0 0 0 0 0 0 0 0 0 0 0 0 0 0 0 0 0 0 0 0 0 0 0 0 0 0 0 0 0 0 0 0 0 0
0 0 0 0 0 0 0 0 0 0 0 0 0 0 0 0 0 0 0 0 0 0 0 0 0 0 0 0 0 0 0 0 0 0 0 0 0 0 0 0 0 0 0
0 0 0 0 0 0 0 0 0 0 0 0 0 0 0 0 0 0 0 0 0 0 0 0 0 0 0 0 0 0 0 0 0 0 0 0 0 0 0 0 0 0 0
0 0 0 0 0 0 0 0 0 0 0 0 0 0 0 0 0 0 0 0 0 0 0 0 0 0 0 0 0 0 0 0 0 0 0 0 0 0 0 0 0 0 0
0 0 0 0 0 0 0 0 0 0 0 0 0 0 0 0 0 0 0 0 0 0 0 0 0 0 0 0 0 0 0 0 0 0 0 0 0 0 0 0 0 0 0
Wind_Speed_500mb
26 28 30 34 38 39 40 41 34 31 30 29 28 29 29 29 32 34 33 35 36 35 33 32 31 30 29 30 32 35 38 41 53 63 64 65 65 65 61 59 61 61 62
30 31 33 33 33 34 34 31 26 24 23 22 22 23 25 21 16 15 13 13 15 16 18 21 23 25 27 30 34 37 40 43 53 64 67 68 68 65 65 66 66 66 69
36 36 35 34 31 30 28 23 22 21 18 15 14 13 11 9 9 9 10 9 10 13 16 20 24 26 29 31 34 38 41 44 48 59 67 67 69 69 72 72 74 77 78
37 37 35 34 33 29 26 25 23 21 18 16 13 10 7 5 4 5 8 11 13 16 19 21 24 28 30 33 36 40 44 47 50 56 63 71 70 72 76 84 91 86 86
44 42 39 37 34 32 31 28 26 24 20 17 13 10 8 9 9 10 13 14 15 16 19 23 26 28 31 34 37 41 46 51 56 60 66 71 76 78 76 79 84 90 89
49 44 41 40 38 37 34 32 30 27 23 19 17 14 11 10 11 13 13 13 14 16 18 21 25 28 33 37 42 45 49 54 57 61 62 67 71 71 72 73 75 82 92
52 49 46 45 43 42 41 39 35 30 23 20 16 12 11 12 10 8 10 12 14 17 20 24 28 32 35 39 42 45 45 46 50 53 59 59 64 62 66 71 72 76 87
56 54 52 50 49 48 45 40 36 29 23 21 19 14 12 10 8 7 9 12 16 18 21 23 26 29 35 40 45 48 50 48 49 51 54 55 56 62 59 65 71 76 82
64 61 57 55 53 50 47 41 35 30 26 23 17 15 15 12 10 9 7 9 11 13 18 23 28 34 38 44 52 56 59 59 54 53 49 50 55 59 58 60 60 62 75
71 65 60 57 53 50 45 40 35 31 27 24 23 19 14 12 11 9 7 5 9 16 22 29 36 41 46 48 51 54 61 62 65 64 57 57 57 58 52 43 48 56 65
72 68 65 62 59 53 47 43 38 34 32 28 22 19 16 14 13 9 7 9 13 21 30 35 39 43 46 50 51 53 56 64 66 63 59 62 60 57 54 49 46 49 58
74 72 70 68 62 56 51 48 44 39 34 29 24 22 20 18 15 11 10 12 18 25 32 36 40 44 46 47 50 52 56 58 61 61 59 60 63 64 60 56 51 49 49
77 75 72 68 62 58 53 49 44 38 33 26 26 29 25 22 14 10 10 16 23 28 34 38 41 42 44 44 47 52 54 57 57 57 59 61 64 67 65 56 50 47 49
78 77 74 71 66 59 53 47 41 37 27 34 38 32 27 19 13 10 12 19 26 30 33 36 41 45 47 48 45 47 50 52 54 56 58 60 61 60 56 51 52 50 49
79 79 77 72 65 61 55 46 39 31 29 39 36 33 26 20 12 12 17 24 29 32 36 36 36 39 45 47 47 47 48 48 49 50 54 59 60 59 55 50 46 46 44
81 80 76 71 67 62 54 45 38 32 47 43 41 35 28 19 13 14 20 25 29 32 33 37 42 46 49 51 53 50 48 48 47 48 47 50 55 57 58 52 46 44 46
79 80 78 74 69 63 51 40 33 54 55 47 45 39 30 23 18 17 22 25 28 31 33 37 39 43 45 47 48 49 49 47 46 43 44 47 50 50 51 51 48 46 45
79 78 76 73 66 54 46 37 57 58 52 53 51 42 34 26 22 21 23 26 28 29 31 32 36 38 39 41 43 45 44 42 40 42 43 44 46 48 49 47 46 48 47
79 77 74 70 59 49 41 55 58 57 56 50 46 41 36 31 29 24 23 26 26 28 30 33 35 37 39 40 41 41 42 42 44 44 43 44 44 45 44 45 45 43 44
79 77 75 74 64 49 58 62 68 66 57 54 49 44 41 36 31 26 27 26 27 28 30 32 34 37 39 41 40 39 40 42 44 44 44 45 47 47 46 46 46 47 45
83 81 78 71 64 66 66 74 67 62 58 56 51 48 45 39 33 32 31 30 30 31 31 31 34 39 43 43 43 43 45 45 47 48 47 44 44 45 43 40 39 38 40
84 83 81 78 77 71 71 67 62 59 58 58 56 54 52 44 39 36 34 33 33 35 34 34 38 42 46 47 48 49 50 48 48 49 45 41 36 35 35 36 36 37 37
83 85 84 79 74 73 67 63 62 62 62 59 59 60 56 47 44 39 37 38 38 36 38 41 42 44 49 51 53 53 53 49 47 44 39 33 30 30 32 34 35 37 38
88 89 85 80 76 71 63 61 69 66 62 64 63 61 58 54 48 43 42 42 40 40 43 45 48 51 51 52 54 53 52 47 43 39 39 37 33 31 33 35 36 37 38
83 81 77 76 73 67 71 69 70 67 66 65 64 63 59 55 51 47 45 46 46 46 45 48 52 54 56 56 54 52 51 47 44 42 42 43 43 40 39 42 44 44 43
83 80 79 79 73 79 73 66 73 71 68 63 63 61 58 54 51 50 49 51 50 51 50 50 53 56 58 59 57 55 53 50 48 46 48 49 50 50 50 50 52 53 51
Wind_Direction_500mb
213 209 208 208 209 217 228 236 228 224 231 238 241 246 250 256 262 262 265 270 277 281 283 285 288 292 293 292 292 292 293 293 293 298 303 307 311 316 315 311 311 310 310
206 202 202 206 211 220 230 221 217 220 225 232 235 238 241 248 252 256 264 268 274 280 283 287 291 297 305 311 314 314 312 310 307 307 311 314 315 316 316 317 318 317 316
202 200 202 206 209 209 207 203 201 200 197 193 190 197 208 225 241 252 262 274 288 295 300 306 311 313 313 314 313 313 311 310 308 308 311 313 315 320 321 320 319 318 318
201 198 198 199 200 201 194 188 185 182 182 182 188 188 188 204 240 273 289 297 302 310 312 312 313 316 318 318 315 313 312 312 311 311 314 318 322 324 323 323 319 320 320
207 203 201 201 197 193 192 188 188 185 181 176 177 184 209 239 265 291 301 306 309 314 319 324 324 324 324 323 323 322 322 323 323 322 321 320 321 322 322 321 318 320 321
210 208 205 202 198 196 193 189 186 181 179 184 198 215 234 258 266 271 278 296 312 322 324 327 328 328 327 329 330 329 329 327 323 321 320 319 320 321 323 323 322 323 319
211 209 208 205 201 195 190 188 185 187 191 204 215 225 229 236 250 283 310 320 323 327 331 336 336 335 334 329 325 324 322 321 319 322 319 320 319 323 322 320 318 313 307
213 211 208 203 199 194 191 190 191 194 200 208 214 223 237 245 251 268 294 312 326 335 338 338 338 331 326 326 325 325 324 323 320 315 312 316 319 323 316 307 306 304 304
214 211 207 204 200 198 196 195 196 202 204 210 212 223 223 228 245 261 288 317 328 333 329 334 333 329 329 331 330 329 327 326 323 321 316 310 316 326 323 320 319 312 308
215 210 207 204 202 202 200 199 200 201 207 207 216 218 220 234 247 257 271 278 314 325 330 331 335 335 336 334 331 328 325 325 322 320 316 314 313 318 323 321 314 313 312
213 208 205 203 202 202 202 202 204 205 205 208 210 213 219 232 238 237 262 294 316 331 338 337 336 337 338 335 333 330 326 325 325 322 318 310 312 317 324 325 319 313 312
209 207 205 203 202 202 203 203 201 202 203 206 212 219 221 222 219 235 272 319 337 343 339 337 335 332 333 334 333 329 327 324 320 318 316 315 318 320 323 324 321 316 311
207 206 204 202 202 202 203 203 201 200 207 205 238 226 216 209 217 248 311 335 340 339 337 335 335 334 334 335 332 330 326 325 325 322 319 315 315 317 317 317 319 323 322
208 205 205 204 203 202 201 203 204 203 209 249 229 220 212 216 232 278 324 337 338 337 337 340 341 341 337 333 331 330 330 330 328 325 322 320 319 320 324 325 323 327 328
208 207 205 203 203 202 201 200 201 214 235 233 223 214 217 223 247 296 324 330 332 336 339 341 337 339 339 338 339 337 333 331 329 327 323 321 323 328 331 332 326 325 326
210 208 207 206 203 200 196 200 213 221 228 223 217 215 219 228 258 290 310 322 326 331 333 339 343 344 341 340 338 339 339 338 336 334 331 327 328 331 333 335 333 327 322
214 211 209 207 204 198 202 218 231 223 224 220 220 221 223 236 253 280 300 310 316 324 332 339 341 342 340 339 338 339 339 340 339 338 337 336 334 335 334 335 336 334 330
215 216 213 208 202 209 224 232 229 228 228 222 223 220 226 238 252 269 290 300 307 322 329 333 336 335 335 337 336 334 334 336 338 338 336 335 334 336 338 339 340 338 334
216 214 214 208 210 222 229 228 226 229 226 224 225 224 231 242 254 267 280 288 303 315 320 328 330 332 334 331 329 330 331 332 332 334 333 332 331 332 335 335 335 336 334
218 217 213 213 217 220 222 226 231 228 226 227 227 227 235 246 256 265 273 287 298 306 314 319 324 326 324 319 319 323 322 321 321 322 324 325 326 327 329 332 333 335 336
220 218 216 216 228 228 229 230 229 229 231 232 230 230 237 241 248 259 273 282 289 297 304 311 317 315 311 309 310 311 313 315 314 314 315 317 318 320 323 328 331 334 336
224 221 219 222 237 228 230 231 229 230 232 233 232 233 236 239 245 254 268 278 286 292 298 304 304 304 303 303 303 305 307 309 307 306 308 311 315 318 321 327 331 335 339
228 227 225 236 233 225 227 231 235 234 235 234 235 237 239 241 246 253 263 272 279 286 291 293 297 298 297 298 300 302 303 305 303 301 302 307 312 316 318 324 329 332 335
230 228 230 231 227 226 227 236 239 236 237 237 238 238 241 246 250 254 262 270 276 281 285 291 295 295 295 296 297 297 298 298 296 294 295 300 303 307 310 314 318 321 323
237 239 237 233 230 228 237 238 238 238 238 240 241 242 244 247 251 257 263 269 274 278 282 287 289 292 295 295 294 292 291 289 288 288 289 291 295 299 303 306 307 308 309
237 237 237 236 229 239 237 235 240 240 240 241 242 244 246 250 254 258 263 268 273 277 281 283 287 290 291 291 290 288 285 281 281 281 282 286 289 293 296 298 298 299 299
Wind_Speed_850mb
26 28 30 34 38 39 40 41 34 31 30 29 28 29 29 29 32 34 33 35 36 35 33 32 31 30 29 30 32 35 38 41 53 63 64 65 65 65 61 59 61 61 62
30 31 33 33 33 34 34 31 26 24 23 22 22 23 25 21 16 15 13 13 15 16 18 21 23 25 27 30 34 37 40 43 53 64 67 68 68 65 65 66 66 66 69
36 36 35 34 31 30 28 23 22 21 18 15 14 13 11 9 9 9 10 9 10 13 16 20 24 26 29 31 34 38 41 44 48 59 67 67 69 69 72 72 74 77 78
37 37 35 34 33 29 26 25 23 21 18 16 13 10 7 5 4 5 8 11 13 16 19 21 24 28 30 33 36 40 44 47 50 56 63 71 70 72 76 84 91 86 86
44 42 39 37 34 32 31 28 26 24 20 17 13 10 8 9 9 10 13 14 15 16 19 23 26 28 31 34 37 41 46 51 56 60 66 71 76 78 76 79 84 90 89
49 44 41 40 38 37 34 32 30 27 23 19 17 14 11 10 11 13 13 13 14 16 18 21 25 28 33 37 42 45 49 54 57 61 62 67 71 71 72 73 75 82 92
52 49 46 45 43 42 41 39 35 30 23 20 16 12 11 12 10 8 10 12 14 17 20 24 28 32 35 39 42 45 45 46 50 53 59 59 64 62 66 71 72 76 87
56 54 52 50 49 48 45 40 36 29 23 21 19 14 12 10 8 7 9 12 16 18 21 23 26 29 35 40 45 48 50 48 49 51 54 55 56 62 59 65 71 76 82
64 61 57 55 53 50 47 41 35 30 26 23 17 15 15 12 10 9 7 9 11 13 18 23 28 34 38 44 52 56 59 59 54 53 49 50 55 59 58 60 60 62 75
71 65 60 57 53 50 45 40 35 31 27 24 23 19 14 12 11 9 7 5 9 16 22 29 36 41 46 48 51 54 61 62 65 64 57 57 57 58 52 43 48 56 65
72 68 65 62 59 53 47 43 38 34 32 28 22 19 16 14 13 9 7 9 13 21 30 35 39 43 46 50 51 53 56 64 66 63 59 62 60 57 54 49 46 49 58
74 72 70 68 62 56 51 48 44 39 34 29 24 22 20 18 15 11 10 12 18 25 32 36 40 44 46 47 50 52 56 58 61 61 59 60 63 64 60 56 51 49 49
77 75 72 68 62 58 53 49 44 38 33 26 26 29 25 22 14 10 10 16 23 28 34 38 41 42 44 44 47 52 54 57 57 57 59 61 64 67 65 56 50 47 49
78 77 74 71 66 59 53 47 41 37 27 34 38 32 27 19 13 10 12 19 26 30 33 36 41 45 47 48 45 47 50 52 54 56 58 60 61 60 56 51 52 50 49
79 79 77 72 65 61 55 46 39 31 29 39 36 33 26 20 12 12 17 24 29 32 36 36 36 39 45 47 47 47 48 48 49 50 54 59 60 59 55 50 46 46 44
81 80 76 71 67 62 54 45 38 32 47 43 41 35 28 19 13 14 20 25 29 32 33 37 42 46 49 51 53 50 48 48 47 48 47 50 55 57 58 52 46 44 46
79 80 78 74 69 63 51 40 33 54 55 47 45 39 30 23 18 17 22 25 28 31 33 37 39 43 45 47 48 49 49 47 46 43 44 47 50 50 51 51 48 46 45
79 78 76 73 66 54 46 37 57 58 52 53 51 42 34 26 22 21 23 26 28 29 31 32 36 38 39 41 43 45 44 42 40 42 43 44 46 48 49 47 46 48 47
79 77 74 70 59 49 41 55 58 57 56 50 46 41 36 31 29 24 23 26 26 28 30 33 35 37 39 40 41 41 42 42 44 44 43 44 44 45 44 45 45 43 44
79 77 75 74 64 49 58 62 68 66 57 54 49 44 41 36 31 26 27 26 27 28 30 32 34 37 39 41 40 39 40 42 44 44 44 45 47 47 46 46 46 47 45
83 81 78 71 64 66 66 74 67 62 58 56 51 48 45 39 33 32 31 30 30 31 31 31 34 39 43 43 43 43 45 45 47 48 47 44 44 45 43 40 39 38 40
84 83 81 78 77 71 71 67 62 59 58 58 56 54 52 44 39 36 34 33 33 35 34 34 38 42 46 47 48 49 50 48 48 49 45 41 36 35 35 36 36 37 37
83 85 84 79 74 73 67 63 62 62 62 59 59 60 56 47 44 39 37 38 38 36 38 41 42 44 49 51 53 53 53 49 47 44 39 33 30 30 32 34 35 37 38
88 89 85 80 76 71 63 61 69 66 62 64 63 61 58 54 48 43 42 42 40 40 43 45 48 51 51 52 54 53 52 47 43 39 39 37 33 31 33 35 36 37 38
83 81 77 76 73 67 71 69 70 67 66 65 64 63 59 55 51 47 45 46 46 46 45 48 52 54 56 56 54 52 51 47 44 42 42 43 43 40 39 42 44 44 43
83 80 79 79 73 79 73 66 73 71 68 63 63 61 58 54 51 50 49 51 50 51 50 50 53 56 58 59 57 55 53 50 48 46 48 49 50 50 50 50 52 53 51
Wind_Direction_850mb
213 209 208 208 209 217 228 236 228 224 231 238 241 246 250 256 262 262 265 270 277 281 283 285 288 292 293 292 292 292 293 293 293 298 303 307 311 316 315 311 311 310 310
206 202 202 206 211 220 230 221 217 220 225 232 235 238 241 248 252 256 264 268 274 280 283 287 291 297 305 311 314 314 312 310 307 307 311 314 315 316 316 317 318 317 316
202 200 202 206 209 209 207 203 201 200 197 193 190 197 208 225 241 252 262 274 288 295 300 306 311 313 313 314 313 313 311 310 308 308 311 313 315 320 321 320 319 318 318
201 198 198 199 200 201 194 188 185 182 182 182 188 188 188 204 240 273 289 297 302 310 312 312 313 316 318 318 315 313 312 312 311 311 314 318 322 324 323 323 319 320 320
207 203 201 201 197 193 192 188 188 185 181 176 177 184 209 239 265 291 301 306 309 314 319 324 324 324 324 323 323 322 322 323 323 322 321 320 321 322 322 321 318 320 321
210 208 205 202 198 196 193 189 186 181 179 184 198 215 234 258 266 271 278 296 312 322 324 327 328 328 327 329 330 329 329 327 323 321 320 319 320 321 323 323 322 323 319
211 209 208 205 201 195 190 188 185 187 191 204 215 225 229 236 250 283 310 320 323 327 331 336 336 335 334 329 325 324 322 321 319 322 319 320 319 323 322 320 318 313 307
213 211 208 203 199 194 191 190 191 194 200 208 214 223 237 245 251 268 294 312 326 335 338 338 338 331 326 326 325 325 324 323 320 315 312 316 319 323 316 307 306 304 304
214 211 207 204 200 198 196 195 196 202 204 210 212 223 223 228 245 261 288 317 328 333 329 334 333 329 329 331 330 329 327 326 323 321 316 310 316 326 323 320 319 312 308
215 210 207 204 202 202 200 199 200 201 207 207 216 218 220 234 247 257 271 278 314 325 330 331 335 335 336 334 331 328 325 325 322 320 316 314 313 318 323 321 314 313 312
213 208 205 203 202 202 202 202 204 205 205 208 210 213 219 232 238 237 262 294 316 331 338 337 336 337 338 335 333 330 326 325 325 322 318 310 312 317 324 325 319 313 312
209 207 205 203 202 202 203 203 201 202 203 206 212 219 221 222 219 235 272 319 337 343 339 337 335 332 333 334 333 329 327 324 320 318 316 315 318 320 323 324 321 316 311
207 206 204 202 202 202 203 203 201 200 207 205 238 226 216 209 217 248 311 335 340 339 337 335 335 334 334 335 332 330 326 325 325 322 319 315 315 317 317 317 319 323 322
208 205 205 204 203 202 201 203 204 203 209 249 229 220 212 216 232 278 324 337 338 337 337 340 341 341 337 333 331 330 330 330 328 325 322 320 319 320 324 325 323 327 328
208 207 205 203 203 202 201 200 201 214 235 233 223 214 217 223 247 296 324 330 332 336 339 341 337 339 339 338 339 337 333 331 329 327 323 321 323 328 331 332 326 325 326
210 208 207 206 203 200 196 200 213 221 228 223 217 215 219 228 258 290 310 322 326 331 333 339 343 344 341 340 338 339 339 338 336 334 331 327 328 331 333 335 333 327 322
214 211 209 207 204 198 202 218 231 223 224 220 220 221 223 236 253 280 300 310 316 324 332 339 341 342 340 339 338 339 339 340 339 338 337 336 334 335 334 335 336 334 330
215 216 213 208 202 209 224 232 229 228 228 222 223 220 226 238 252 269 290 300 307 322 329 333 336 335 335 337 336 334 334 336 338 338 336 335 334 336 338 339 340 338 334
216 214 214 208 210 222 229 228 226 229 226 224 225 224 231 242 254 267 280 288 303 315 320 328 330 332 334 331 329 330 331 332 332 334 333 332 331 332 335 335 335 336 334
218 217 213 213 217 220 222 226 231 228 226 227 227 227 235 246 256 265 273 287 298 306 314 319 324 326 324 319 319 323 322 321 321 322 324 325 326 327 329 332 333 335 336
220 218 216 216 228 228 229 230 229 229 231 232 230 230 237 241 248 259 273 282 289 297 304 311 317 315 311 309 310 311 313 315 314 314 315 317 318 320 323 328 331 334 336
224 221 219 222 237 228 230 231 229 230 232 233 232 233 236 239 245 254 268 278 286 292 298 304 304 304 303 303 303 305 307 309 307 306 308 311 315 318 321 327 331 335 339
228 227 225 236 233 225 227 231 235 234 235 234 235 237 239 241 246 253 263 272 279 286 291 293 297 298 297 298 300 302 303 305 303 301 302 307 312 316 318 324 329 332 335
230 228 230 231 227 226 227 236 239 236 237 237 238 238 241 246 250 254 262 270 276 281 285 291 295 295 295 296 297 297 298 298 296 294 295 300 303 307 310 314 318 321 323
237 239 237 233 230 228 237 238 238 238 238 240 241 242 244 247 251 257 263 269 274 278 282 287 289 292 295 295 294 292 291 289 288 288 289 291 295 299 303 306 307 308 309
237 237 237 236 229 239 237 235 240 240 240 241 242 244 246 250 254 258 263 268 273 277 281 283 287 290 291 291 290 288 285 281 281 281 282 286 289 293 296 298 298 299 299